Flag for Mexico Weather past 2 weeks in Guadalajara, Jalisco, Mexico

Now
64 °F

Passing clouds.


Feels Like: 64 °F
Forecast: 62 / 78 °F
Wind: No wind

Location: Don Miguel / Guadalaj

Current Time: Sep 1, 2015 at 6:10:01 AM

Latest Report: Sep 1, 2015 at 4:53 AM


Visibility: 10 mi

Pressure: 30.19 "Hg (25.19 "Hg at 1543m altitude)

Humidity: 83%

Dew point: 59 °F

Location of GuadalajaraLocation

Historic Weather in Guadalajara — Graph

°F

Guadalajara temperature yesterday

Maximum temperature yesterday: 79 °F (at 3:46 PM)
Minimum temperature yesterday: 63 °F (at 7:51 AM)
Average temperature yesterday: 69 °F

Past Weeks' High & Low Weather Summary

 TemperatureHumidityPressure
High84 °F (Aug 21, 5:45 PM)94% (Aug 17, 5:47 AM)30.30 "Hg (Aug 17, 5:47 AM)
Low57 °F (Aug 18, 4:45 AM)23% (Aug 29, 4:46 PM)29.73 "Hg (Aug 30, 6:52 PM)
Average69 °F70%30.09 "Hg
* Reported Aug 17 5:47 AM — Sep 1 4:53 AM, Guadalajara, Weather by CustomWeather, © 2015

Note: Actual official high and low records may vary slightly from our data, if they occured in-between our weather recording intervals... More about our weather records

Advertising

Guadalajara weather history for previous 24 hours

 ConditionsComfort  
Time TempWeatherWind HumidityBarometerVisibility
4:53 AM
Tue, Sep 1
64 °FPassing clouds.No wind83%30.19 "Hg10 mi
3:52 AM64 °FPassing clouds.3 mph83%29.87 "Hg10 mi
2:47 AM64 °FPassing clouds.No wind83%30.21 "Hg10 mi
1:51 AM64 °FPassing clouds.5 mph83%30.21 "Hg10 mi
12:52 AM64 °FPassing clouds.No wind83%29.90 "Hg10 mi
11:54 PM
Mon, Aug 31
66 °FPassing clouds.No wind78%30.19 "Hg10 mi
8:52 PM70 °FBroken clouds.No wind69%30.16 "Hg10 mi
7:45 PM75 °FBroken clouds.3 mph57%30.15 "Hg10 mi
5:46 PM77 °FBroken clouds.6 mph57%30.13 "Hg8 mi
4:50 PM79 °FBroken clouds.9 mph54%30.13 "Hg8 mi
3:46 PM79 °FPartly sunny.5 mph51%29.81 "Hg6 mi
1:46 PM77 °FPartly sunny.6 mph57%30.22 "Hg6 mi
12:49 PM72 °FPartly sunny.5 mph65%29.94 "Hg6 mi
11:52 AM72 °FBroken clouds.3 mph65%30.26 "Hg4 mi
10:48 AM70 °FBroken clouds.3 mph73%30.26 "Hg3 mi
10:09 AMN/ASleet.N/AN/AN/AN/A
9:48 AM64 °FCloudy.7 mph83%29.91 "Hg5 mi
8:50 AM63 °FMostly cloudy.3 mph88%30.20 "Hg8 mi
7:51 AM63 °FOvercast.No wind83%30.19 "Hg10 mi
6:48 AM64 °FMostly cloudy.No wind78%29.81 "Hg10 mi
Weather by CustomWeather, © 2015

See weather overviewHow to use our weather pages